This is the latest recevied weather packets stored in our database for station/object SA7AHC. If no packets are shown the sender has not sent any weather packets the latest 1 day(s).
| Time | Temp. | Humidity | Pressure | Rain* | Wind** | Luminosity | Snow |
|---|---|---|---|---|---|---|---|
| 1836274465 | 14.44° C | 96% | 1015.8 hPa | 0 mm | 1.79 m/s, 219° | 0 W/m² | - |
| 1836274314 | 14.44° C | 96% | 1015.7 hPa | 0 mm | 1.79 m/s, 186° | 0 W/m² | - |
| 1778019211 | 3.33° C | 65% | 1011.6 hPa | 0 mm | 0 m/s | 0 W/m² | - |
| 1778018616 | 3.89° C | 62% | 1011.6 hPa | 0 mm | 0 m/s | 0 W/m² | - |
| 1778018009 | 4.44° C | 62% | 1011.6 hPa | 0 mm | 0 m/s | 0 W/m² | - |
| 1778017394 | 5° C | 56% | 1011.7 hPa | 0 mm | 0.45 m/s, 336° | 0 W/m² | - |
| 1778016787 | 5° C | 53% | 1011.6 hPa | 0 mm | 0.45 m/s, 331° | 0 W/m² | - |
| 1778016185 | 4.44° C | 56% | 1011.6 hPa | 0 mm | 0.45 m/s, 331° | 0 W/m² | - |
| 1778015587 | 3.89° C | 63% | 1011.3 hPa | 0 mm | 0.45 m/s, 321° | 0 W/m² | - |
| 1778014984 | 3.89° C | 65% | 1011.3 hPa | 0 mm | 0.45 m/s, 321° | 0 W/m² | - |
| 1778014393 | 4.44° C | 66% | 1011.3 hPa | 0 mm | 0 m/s | 0 W/m² | - |
| 1778013790 | 4.44° C | 62% | 1011.2 hPa | 0 mm | 0 m/s | 0 W/m² | - |
| 1778013187 | 4.44° C | 62% | 1011.3 hPa | 0 mm | 0 m/s | 0 W/m² | - |
| 1778012586 | 4.44° C | 59% | 1011.3 hPa | 0 mm | 0 m/s | 0 W/m² | - |
| 1778011983 | 5° C | 58% | 1011.2 hPa | 0 mm | 0 m/s | 0 W/m² | - |
| 1778011373 | 5.56° C | 53% | 1011.2 hPa | 0 mm | 0 m/s | 0 W/m² | - |
| 1778010766 | 6.11° C | 49% | 1010.8 hPa | 0 mm | 0 m/s | 0 W/m² | - |
| 1778010162 | 6.67° C | 49% | 1010.9 hPa | 0 mm | 0 m/s | 0 W/m² | - |
| 1778009555 | 7.22° C | 46% | 1010.9 hPa | 0 mm | 0.45 m/s, 288° | 0 W/m² | - |
| 1778008952 | 7.78° C | 44% | 1010.9 hPa | 0 mm | 0.45 m/s, 288° | 0 W/m² | - |
| 1778008352 | 8.33° C | 43% | 1011 hPa | 0 mm | 0.45 m/s, 288° | 0 W/m² | - |
| 1778007754 | 8.33° C | 39% | 1010.8 hPa | 0 mm | 0.45 m/s, 287° | 0 W/m² | - |
| 1778007152 | 8.33° C | 46% | 1010.6 hPa | 0 mm | 0.45 m/s, 287° | 0 W/m² | - |
| 1778006554 | 8.33° C | 47% | 1010.6 hPa | 0 mm | 0.45 m/s, 285° | 5 W/m² | - |
| 1778005952 | 8.89° C | 48% | 1010.5 hPa | 0 mm | 0 m/s | 7 W/m² | - |
* Rain latest hour (hover to see other rain measurements)
** Current wind speed in m/s (hover to see current wind gust speed)